Weather in Urada

Russia / Republic of Dagestan     42°23′04″N   46°33′36″E
temp.,
°C
wind,
m/s
gust,
m/s
humid.,
%
clouds,
%
prec.,
mm/h
press.,
hPa
HPBL,
m
3 march, wed
wed300:00−12sw33670 0.0 102557
03:00−12sw43630 0.0 102356
06:00−12sw33630 0.0 102234
09:00−7sw33620 0.0 1019195
12:00−3sw245230 0.0 10171085
15:00−3wnw236025 0.0 10161219
18:00−7w2293100 1.7 1019122
21:00−9wnw2295100 3.9 1023132
4 march, thu
thu400:00−9wnw3495100 1.0 1024266
03:00−14wsw338290 1.1 102547
06:00−15wsw337719 0.0 102724
09:00−8w12679 0.0 1027132
12:00−4nne11650 0.0 1026352
15:00−3ene02680 0.0 1025476
18:00−9sw22790 0.0 102522
21:00−12sw43690 0.0 102635
5 march, fri
fri500:00−11sw33660 0.0 102526
03:00−11sw226038 0.0 102322
06:00−11sw22533 0.0 102121
09:00−4wsw11551 0.0 102051
12:00−1nnw22640 0.0 1018272
15:000nnw12630 0.0 1017306
18:00−6wsw22560 0.0 101921
21:00−7sw33400 0.0 102121
6 march, sat
sat600:00−7sw32370 0.0 102121
03:00−7sw33380 0.0 102024
06:00−7sw33410 0.0 102025
09:00−1sw22601 0.0 101979
12:00+1sw228341 0.0 1016182
15:00+2wsw118521 0.0 1014115
18:00−4sw336767 0.0 101523
21:00−5sw335583 0.0 101432
7 march, sun
sun700:00−5sw4356100 0.0 101335
03:00−5sw3361100 0.0 101330
06:00−7wsw336433 0.0 101552
09:00−4wnw347623 0.0 1017233
12:00−2nnw228356 0.0 1018447
15:00−5n349378 0.7 1019349
18:00−8nne2296100 0.7 1021101
21:00−11n1196100 1.3 102380